Back to catalog

ORBCOMM FM 6

AliveCommunicationsLEO
NORAD 25118·PAYLOAD·🇺🇸 United States

Launched Dec 23, 1997 from Cape Canaveral Space Force Station

Loading…

Next Passes (next 24 hours)

TLE

FreshSource: Space-Track

Epoch: Sep 14, 2026, 05:26 UTC

1 25118U 97084G   26257.22646311  .00000854  00000-0  26813-3 0  9992
2 25118  45.0150 344.0073 0001778 242.1852 140.6384 14.47745461507294

Track ORBCOMM FM 6 in real time with AllMySat

Download on the App Store